[[{"header":{"parameterUnit":"m.s-1","parameterCategory":1,"la1":30.2991,"la2":30.254,"lo1":-89.0895,"lo2":-89.0444,"dy":0.0017,"dx":0.0017,"nx":28,"ny":28,"refTime":"2025-01-23T09:00:00:Z","depth":0,"parameterNumber":2,"parameterNumberName":"U-component_of_WINDS"},"data":[0,0,0,0,0,0,0,0,0,0,0,0,0,0,0,0,0,0,0,0,0,0,0,0,0,0,0,0,0,0,0,0,0,0,0,0,0,0,0,0,0,0,0,0,0,0,0,0,0,0,0,0,0,0,0,0,0,0,-0.0038,-0.0039,0,-0.0111,-0.0112,-0.0112,-0.013,-0.013,-0.0129,-0.0129,-0.0206,-0.0208,-0.0211,0,0,0,0,0,0,0,0,0,0,0,0,0,0.0084,0.0082,-0.0038,-0.0039,-0.004,-0.0111,-0.0112,-0.0113,-0.013,-0.013,-0.0129,-0.0128,-0.0205,-0.0208,-0.0211,0,0,0,0,0,0,0,0,0,0,0,0,0,0.0023,0.0081,-0.0038,-0.0057,-0.0059,-0.011,-0.0112,-0.0113,-0.013,-0.013,-0.0129,-0.0128,-0.0204,-0.0207,-0.0211,-0.0249,0,0,-0.0223,-0.0224,0,0,0,0,0,0,0,0,0.0027,0.0019,-0.0053,-0.0056,-0.0059,-0.0111,-0.0097,-0.0159,-0.0131,-0.0103,-0.0129,-0.0128,-0.0175,-0.0181,-0.0196,-0.0253,-0.0256,-0.0223,-0.0225,-0.0227,-0.0228,0,0,0,0,0,0,0,0.0031,0.0022,-0.0067,-0.0054,-0.0058,-0.0063,-0.007,-0.0109,-0.0142,-0.0106,-0.0107,-0.0115,-0.0176,-0.0193,-0.0198,-0.0257,-0.0223,-0.0226,-0.0229,-0.023,-0.0348,-0.0349,0,0,0,0,0,0,0.0039,0.0025,-0.0065,-0.0069,-0.0013,-0.0065,-0.0074,-0.0095,-0.0142,-0.0148,-0.0116,-0.0116,-0.0186,-0.0194,-0.0201,-0.0249,-0.0227,-0.023,-0.0233,-0.0348,-0.0349,-0.035,0,0,0,0,0,0,0.0041,0.0031,-0.0062,-0.0022,-0.0034,-0.0068,-0.0091,-0.0096,-0.0113,-0.015,-0.0156,-0.0127,-0.0186,-0.0196,-0.0237,-0.0251,-0.0232,-0.0235,-0.0346,-0.0348,-0.0349,-0.0344,0,0,0,0,0,0,0.0045,0.0032,0.0018,-0.0022,-0.0036,-0.0096,-0.0092,-0.0098,-0.0119,-0.012,-0.0161,-0.0167,-0.0186,-0.0231,-0.0241,-0.0256,-0.0238,-0.0345,-0.0347,-0.0349,-0.0343,-0.0345,-0.0346,0,0,0,0,0,0.0049,0.0022,0.0017,0.0006,-0.0055,-0.0096,-0.0104,-0.0125,-0.012,-0.0135,-0.0159,-0.0166,-0.0248,-0.0235,-0.0246,-0.0263,-0.0345,-0.0347,-0.0349,-0.0342,-0.0344,-0.0346,0,0,0,0,0,0,0.006,0.0016,0.001,-0.0031,-0.006,-0.0099,-0.0119,-0.0127,-0.0158,-0.0158,-0.0182,-0.0192,-0.0231,-0.0251,-0.0236,-0.0302,-0.0296,-0.0301,-0.0288,-0.029,-0.0292,-0.0287,-0.0242,0,0,0,0,0,0.0058,0.0028,-0.0009,-0.0042,-0.0056,-0.0085,-0.0104,-0.0117,-0.0148,-0.016,-0.0187,-0.0218,-0.025,-0.0271,-0.0303,-0.0346,-0.0355,-0.0363,-0.0364,-0.0366,-0.0369,-0.0393,-0.0397,-0.0356,-0.0356,-0.0356,0,0,0.0052,0.0025,0.0007,-0.004,-0.0064,-0.0095,-0.0095,-0.0127,-0.015,-0.0166,-0.0206,-0.0226,-0.0262,-0.0304,-0.0324,-0.0322,-0.0383,-0.0368,-0.0369,-0.0372,-0.0396,-0.04,-0.0403,-0.0358,-0.0357,-0.0357,0,0,0.0027,0.0003,-0.0027,-0.0051,-0.0086,-0.0105,-0.0113,-0.0151,-0.0165,-0.0206,-0.0218,-0.0246,-0.0301,-0.0326,-0.0346,-0.0381,-0.0389,-0.0391,-0.04,-0.0424,-0.0427,-0.043,-0.0443,-0.0447,-0.0394,-0.0394,-0.0394,0,0.0024,-0.0022,-0.0042,-0.0073,-0.0094,-0.0108,-0.014,-0.0162,-0.0206,-0.0221,-0.0218,-0.0288,-0.0313,-0.0361,-0.0369,-0.0385,-0.0394,-0.0386,-0.0425,-0.0428,-0.0431,-0.0443,-0.0448,-0.0394,-0.0394,-0.0394,-0.0394,0,-0.0023,-0.0055,-0.0075,-0.0117,-0.014,-0.0171,-0.0196,-0.0218,-0.0229,-0.0248,-0.0289,-0.032,-0.0358,-0.0371,-0.0382,-0.042,-0.0418,-0.0419,-0.0414,-0.0434,-0.0447,-0.0451,-0.0394,-0.0394,-0.0394,-0.0394,0,0,-0.0044,-0.0097,-0.0104,-0.0123,-0.0163,-0.0188,-0.022,-0.0257,-0.0275,-0.0305,-0.0333,-0.038,-0.0381,-0.0404,-0.0418,-0.0438,-0.0464,-0.0437,-0.0439,-0.0442,-0.0508,-0.0507,-0.0512,-0.0469,-0.047,-0.0471,-0.0506,0,-0.0075,-0.0132,-0.0151,-0.0198,-0.0228,-0.0242,-0.027,-0.0298,-0.0317,-0.0345,-0.0367,-0.0399,-0.0398,-0.0412,-0.0433,-0.0456,-0.0478,-0.0454,-0.0496,-0.0498,-0.0487,-0.0519,-0.0518,-0.0549,-0.051,-0.0511,-0.0512,0,-0.0119,-0.0149,-0.0199,-0.0235,-0.0249,-0.0273,-0.0308,-0.0335,-0.0368,-0.038,-0.0405,-0.0418,-0.0452,-0.0444,-0.0493,-0.0476,-0.0494,-0.0509,-0.051,-0.0516,-0.0506,-0.0525,-0.0559,-0.0564,-0.0519,-0.0519,-0.0518,0,-0.013,-0.0183,-0.022,-0.0236,-0.0279,-0.0296,-0.0315,-0.0346,-0.0367,-0.0398,-0.0412,-0.0447,-0.0467,-0.0494,-0.0516,-0.0508,-0.0562,-0.0556,-0.0574,-0.0573,-0.0585,-0.0584,-0.0623,-0.0596,-0.0596,-0.0596,-0.0596,0,-0.0162,-0.0192,-0.0225,-0.0248,-0.0282,-0.0304,-0.0338,-0.0358,-0.0385,-0.0413,-0.0427,-0.0452,-0.048,-0.0509,-0.0527,-0.0564,-0.0573,-0.0584,-0.0589,-0.0583,-0.0582,-0.0596,-0.0594,-0.0597,-0.0597,-0.0597,-0.0597,0,-0.018,-0.0203,-0.0244,-0.0282,-0.0292,-0.0316,-0.0348,-0.0371,-0.039,-0.0425,-0.0434,-0.0465,-0.05,-0.0524,-0.057,-0.0582,-0.0622,-0.0626,-0.0611,-0.0613,-0.063,-0.0628,-0.0679,-0.0688,-0.0655,-0.0655,-0.0655,0,-0.02,-0.0223,-0.0263,-0.0282,-0.0301,-0.0331,-0.0352,-0.0375,-0.0396,-0.0435,-0.0453,-0.0489,-0.0519,-0.0574,-0.0601,-0.0636,-0.0641,-0.0657,-0.0647,-0.064,-0.0642,-0.064,-0.0643,-0.0659,-0.0659,-0.0659,-0.0659,0,-0.0232,-0.0242,-0.0271,-0.0305,-0.033,-0.0358,-0.0386,-0.04,-0.0428,-0.0452,-0.0487,-0.051,-0.0556,-0.0592,-0.0629,-0.065,-0.0659,-0.0662,-0.0668,-0.0663,-0.0653,-0.0659,-0.0616,-0.0661,-0.0661,-0.0661,-0.0661,-0.066,-0.0252,-0.0273,-0.0304,-0.0337,-0.036,-0.0386,-0.0409,-0.0431,-0.0461,-0.0499,-0.0511,-0.0548,-0.058,-0.0631,-0.0652,-0.0682,-0.0681,-0.0689,-0.0692,-0.0694,-0.0694,-0.0648,-0.0689,-0.0689,-0.0689,-0.0689,-0.0689,0,-0.0285,-0.0305,-0.0335,-0.0373,-0.0399,-0.0405,-0.0436,-0.0457,-0.0489,-0.0518,-0.0547,-0.0588,-0.0623,-0.0652,-0.0688,-0.0706,-0.0711,-0.0715,-0.0714,-0.0719,-0.0692,-0.0684,-0.071,-0.071,-0.071,-0.071,-0.071,-0.071,-0.0305,-0.0341,-0.0355,-0.0404,-0.0425,-0.046,-0.0478,-0.0502,-0.0525,-0.057,-0.0598,-0.0617,-0.0646,-0.0684,-0.0716,-0.0724,-0.0737,-0.0739,-0.0748,-0.0723,-0.072,-0.0718,-0.071,-0.0742,-0.0742,-0.0772,-0.0772,-0.0772]},{"header":{"parameterUnit":"m.s-1","parameterCategory":1,"la1":30.2991,"la2":30.254,"lo1":-89.0895,"lo2":-89.0444,"dy":0.0017,"dx":0.0017,"nx":28,"ny":28,"refTime":"2025-01-23T09:00:00:Z","depth":0,"parameterNumber":3,"parameterNumberName":"V-component_of_WINDS"},"data":[0,0,0,0,0,0,0,0,0,0,0,0,0,0,0,0,0,0,0,0,0,0,0,0,0,0,0,0,0,0,0,0,0,0,0,0,0,0,0,0,0,0,0,0,0,0,0,0,0,0,0,0,0,0,0,0,0,0,-3.163,-3.163,0,-3.169,-3.169,-3.1691,-3.1614,-3.1612,-3.1609,-3.1606,-3.1665,-3.1669,-3.1673,0,0,0,0,0,0,0,0,0,0,0,0,0,-3.1447,-3.1451,-3.163,-3.1631,-3.1631,-3.1689,-3.169,-3.1691,-3.1615,-3.1611,-3.1608,-3.1605,-3.1664,-3.1669,-3.1674,0,0,0,0,0,0,0,0,0,0,0,0,0,-3.1519,-3.1452,-3.163,-3.16,-3.1598,-3.1689,-3.169,-3.1691,-3.1616,-3.1611,-3.1607,-3.1603,-3.1662,-3.1668,-3.1674,-3.1796,0,0,-3.1693,-3.1696,0,0,0,0,0,0,0,0,-3.1515,-3.1525,-3.1604,-3.1603,-3.16,-3.164,-3.1647,-3.1726,-3.1617,-3.1609,-3.1606,-3.1601,-3.166,-3.1666,-3.1687,-3.1799,-3.1802,-3.1694,-3.1698,-3.17,-3.1702,0,0,0,0,0,0,0,-3.151,-3.1522,-3.1653,-3.1605,-3.1603,-3.1583,-3.1589,-3.1662,-3.1657,-3.1609,-3.1604,-3.1612,-3.1658,-3.1681,-3.1687,-3.1802,-3.1694,-3.1699,-3.1703,-3.1706,-3.2017,-3.2021,0,0,0,0,0,0,-3.1509,-3.1519,-3.1651,-3.1655,-3.1546,-3.159,-3.1596,-3.1632,-3.1656,-3.1656,-3.1616,-3.1608,-3.1672,-3.168,-3.1689,-3.1833,-3.17,-3.1706,-3.171,-3.2013,-3.2018,-3.2023,0,0,0,0,0,0,-3.1505,-3.1521,-3.1649,-3.1586,-3.16,-3.1598,-3.1638,-3.1635,-3.1657,-3.1661,-3.1659,-3.164,-3.1669,-3.168,-3.177,-3.1834,-3.1709,-3.1715,-3.2007,-3.2014,-3.2021,-3.2123,0,0,0,0,0,0,-3.15,-3.152,-3.1567,-3.1587,-3.1604,-3.173,-3.1642,-3.1639,-3.1669,-3.166,-3.1683,-3.1683,-3.1667,-3.1761,-3.1776,-3.184,-3.172,-3.2001,-3.201,-3.2018,-3.2113,-3.2132,-3.2148,0,0,0,0,0,-3.1494,-3.1593,-3.157,-3.1587,-3.1663,-3.1734,-3.1744,-3.1724,-3.1674,-3.1721,-3.1723,-3.1682,-3.1825,-3.1771,-3.1788,-3.1854,-3.1997,-3.2008,-3.2018,-3.2106,-3.2128,-3.2147,0,0,0,0,0,0,-3.158,-3.1595,-3.157,-3.1679,-3.1706,-3.1721,-3.178,-3.1748,-3.1789,-3.1779,-3.1752,-3.1758,-3.1854,-3.1863,-3.1803,-3.1973,-3.1903,-3.1917,-3.1964,-3.1985,-3.2002,-3.1998,-3.1725,0,0,0,0,0,-3.1612,-3.167,-3.1679,-3.1775,-3.179,-3.1783,-3.1813,-3.1795,-3.1822,-3.1832,-3.1841,-3.1868,-3.1918,-3.1952,-3.1999,-3.2114,-3.2118,-3.2168,-3.2185,-3.2199,-3.2212,-3.2273,-3.2295,-3.2056,-3.2056,-3.2056,0,0,-3.1679,-3.1694,-3.1732,-3.1793,-3.1811,-3.1871,-3.1793,-3.1859,-3.1902,-3.1842,-3.1928,-3.1935,-3.1963,-3.2066,-3.2112,-3.2076,-3.2278,-3.2212,-3.2224,-3.2228,-3.2285,-3.2308,-3.2328,-3.2063,-3.2062,-3.2061,0,0,-3.183,-3.1848,-3.1929,-3.1949,-3.1979,-3.1973,-3.1993,-3.2013,-3.2016,-3.2101,-3.2057,-3.2108,-3.2196,-3.2218,-3.224,-3.2399,-3.2363,-3.2415,-3.2505,-3.2565,-3.2583,-3.26,-3.2656,-3.2677,-3.2427,-3.2428,-3.2428,0,-3.1908,-3.1997,-3.1974,-3.2044,-3.2071,-3.202,-3.2102,-3.2122,-3.2166,-3.2186,-3.2146,-3.2255,-3.227,-3.2377,-3.2416,-3.2436,-3.2456,-3.2412,-3.2583,-3.2599,-3.2614,-3.2667,-3.2689,-3.2434,-3.2433,-3.2432,-3.2432,0,-3.2092,-3.2154,-3.2216,-3.2259,-3.2294,-3.2369,-3.2357,-3.2394,-3.2373,-3.2372,-3.2459,-3.2476,-3.2525,-3.2549,-3.2529,-3.2653,-3.263,-3.2587,-3.2516,-3.2643,-3.2693,-3.2713,-3.2442,-3.244,-3.2438,-3.2437,0,0,-3.23,-3.233,-3.2353,-3.2372,-3.2401,-3.2448,-3.252,-3.2569,-3.2601,-3.2632,-3.2692,-3.2767,-3.2728,-3.2753,-3.2735,-3.2788,-3.2912,-3.2738,-3.2738,-3.2769,-3.3049,-3.3082,-3.3106,-3.2888,-3.2892,-3.2895,-3.3047,0,-3.2451,-3.2577,-3.2558,-3.268,-3.2736,-3.2688,-3.2751,-3.2775,-3.2775,-3.2823,-3.2822,-3.2876,-3.282,-3.2835,-3.2885,-3.2886,-3.2968,-3.2875,-3.2942,-3.2945,-3.2937,-3.3132,-3.3166,-3.3309,-3.3066,-3.3069,-3.3072,0,-3.2644,-3.2683,-3.2811,-3.283,-3.2853,-3.291,-3.2953,-3.2999,-3.3025,-3.3021,-3.305,-3.3022,-3.3093,-3.3021,-3.3118,-3.3056,-3.3082,-3.3087,-3.3092,-3.3097,-3.3016,-3.3142,-3.3354,-3.3376,-3.3102,-3.31,-3.3098,0,-3.2783,-3.2867,-3.2954,-3.2972,-3.2997,-3.3038,-3.305,-3.3072,-3.3102,-3.3139,-3.3158,-3.3203,-3.3228,-3.3262,-3.3247,-3.3196,-3.3347,-3.3273,-3.3346,-3.3346,-3.338,-3.3378,-3.3599,-3.3397,-3.3397,-3.3396,-3.3396,0,-3.2954,-3.3034,-3.3017,-3.3071,-3.3158,-3.3135,-3.3222,-3.3228,-3.3248,-3.3301,-3.3262,-3.3312,-3.3289,-3.3337,-3.3326,-3.3408,-3.3419,-3.3418,-3.3414,-3.3421,-3.3422,-3.3438,-3.3428,-3.3402,-3.3401,-3.34,-3.3399,0,-3.3124,-3.3116,-3.3207,-3.3224,-3.323,-3.3293,-3.3307,-3.3356,-3.3353,-3.3421,-3.3436,-3.3431,-3.3486,-3.3474,-3.3535,-3.3526,-3.363,-3.3613,-3.3622,-3.3618,-3.3691,-3.3684,-3.393,-3.3961,-3.3739,-3.3741,-3.3743,0,-3.3233,-3.3294,-3.3317,-3.335,-3.3365,-3.3419,-3.345,-3.3429,-3.3463,-3.3496,-3.3542,-3.3594,-3.3634,-3.3724,-3.3726,-3.3771,-3.3756,-3.3839,-3.3762,-3.3768,-3.3757,-3.3753,-3.3759,-3.3854,-3.3856,-3.3858,-3.386,0,-3.3429,-3.3422,-3.3468,-3.3514,-3.3552,-3.3586,-3.3616,-3.3645,-3.3627,-3.3667,-3.3723,-3.3755,-3.3816,-3.3868,-3.391,-3.3921,-3.3888,-3.3884,-3.3903,-3.3912,-3.3914,-3.3914,-3.3663,-3.3879,-3.3877,-3.3875,-3.3874,-3.3874,-3.3572,-3.3623,-3.3647,-3.37,-3.3721,-3.375,-3.3797,-3.3801,-3.3847,-3.3897,-3.3881,-3.3945,-3.3968,-3.4022,-3.4038,-3.4087,-3.4056,-3.4084,-3.4091,-3.4098,-3.4107,-3.3906,-3.4095,-3.4094,-3.4094,-3.4093,-3.4093,0,-3.3765,-3.3778,-3.3827,-3.3871,-3.3912,-3.3878,-3.3909,-3.3946,-3.4003,-3.4028,-3.4069,-3.4133,-3.4183,-3.4188,-3.4235,-3.4273,-3.4259,-3.4286,-3.4283,-3.4286,-3.4132,-3.4111,-3.4297,-3.4297,-3.4297,-3.4297,-3.4297,-3.4297,-3.387,-3.3955,-3.3951,-3.4045,-3.4057,-3.412,-3.4141,-3.4168,-3.4187,-3.4261,-3.4303,-3.4306,-3.4323,-3.4371,-3.4414,-3.4415,-3.4434,-3.4467,-3.4461,-3.4317,-3.4297,-3.4278,-3.4258,-3.4471,-3.4471,-3.4611,-3.4612,-3.4613]}]]